Date String (YYYY-MM-DD hh:mm:ss) UTC,Instrument flags,Ambient pressure (hPa),Sample flow (lpm),Bypass flow (lpm),Sample temperature (°C),Ambient temperature (°C),ASC tube jacket temperature (°C),LED temperature (°C),Box temperature (°C),Sample RH (%),Span deviation,Mass concentration (μg/m³),Mass concentration (μg/m³),Mass concentration (μg/m³)
DateTimeUTC,F1_M11,P_M11,Q1_M11,Q2_M11,T1_M11,T2_M11,T3_M11,T4_M11,T5_M11,U1_M11,ZSPAN_M11,X0_M11,X2_M11,X1_M11
2022-12-10 21:00:00,,0824.0,4.99,0.00,26.1,25.0,00.0,34.8,28.0,05.6,0000.0,0007.49,0003.41,0002.94
2022-12-10 21:01:00,,0824.0,5.02,0.00,26.2,25.1,00.0,34.8,28.1,05.7,0000.0,0007.42,0003.37,0002.89
2022-12-10 21:02:00,,0824.0,4.99,0.00,26.2,25.1,00.0,34.8,28.1,05.7,0000.0,0006.99,0003.32,0002.83
2022-12-10 21:03:00,,0824.0,4.99,0.00,26.2,25.1,00.0,34.9,28.1,05.7,0000.0,0006.75,0003.27,0002.78
2022-12-10 21:04:00,,0824.0,5.01,0.00,26.2,25.1,00.0,34.9,28.1,05.8,0000.0,0006.90,0003.25,0002.75
2022-12-10 21:05:00,,0824.0,5.02,0.00,26.2,25.2,00.0,34.9,28.1,05.8,0000.0,0007.16,0003.28,0002.74
2022-12-10 21:06:00,,0824.0,5.01,0.00,26.3,25.2,00.0,34.9,28.2,05.8,0000.0,0007.31,0003.28,0002.75
2022-12-10 21:07:00,,0824.0,4.98,0.00,26.3,25.2,00.0,34.9,28.2,05.8,0000.0,0007.48,0003.32,0002.77
2022-12-10 21:08:00,,0823.9,4.99,0.00,26.3,25.2,00.0,35.0,28.2,05.8,0000.0,0008.11,0003.35,0002.81
2022-12-10 21:09:00,,0823.9,5.00,0.00,26.3,25.2,00.0,35.0,28.2,05.9,0000.0,0008.83,0003.38,0002.85
2022-12-10 21:10:00,,0823.9,5.01,0.00,26.3,25.2,00.0,35.0,28.2,06.1,0000.0,0009.23,0003.43,0002.91
2022-12-10 21:11:00,,0823.9,5.02,0.00,26.3,25.3,00.0,35.0,28.2,06.1,0000.0,0009.21,0003.48,0002.99
2022-12-10 21:12:00,,0823.8,4.99,0.00,26.4,25.3,00.0,35.0,28.3,06.1,0000.0,0009.10,0003.52,0003.07
2022-12-10 21:13:00,,0823.8,4.99,0.00,26.4,25.3,00.0,35.1,28.3,06.1,0000.0,0010.06,0003.55,0003.12
2022-12-10 21:14:00,,0823.9,4.99,0.00,26.4,25.3,00.0,35.1,28.3,06.1,0000.0,0010.21,0003.60,0003.16
2022-12-10 21:15:00,,0824.0,5.00,0.00,26.4,25.3,00.0,35.1,28.3,06.0,0000.0,0010.66,0003.65,0003.18
2022-12-10 21:16:00,,0824.0,5.01,0.00,26.4,25.3,00.0,35.1,28.3,06.0,0000.0,0011.01,0003.65,0003.19
2022-12-10 21:17:00,,0823.9,5.01,0.00,26.4,25.3,00.0,35.1,28.3,06.0,0000.0,0011.02,0003.68,0003.20
2022-12-10 21:18:00,,0824.0,5.00,0.00,26.4,25.3,00.0,35.1,28.3,06.0,0000.0,0010.99,0003.66,0003.22
2022-12-10 21:19:00,,0823.9,5.00,0.00,26.5,25.4,00.0,35.1,28.3,06.0,0000.0,0010.93,0003.67,0003.23
2022-12-10 21:20:00,,0823.8,4.98,0.00,26.5,25.4,00.0,35.2,28.4,05.9,0000.0,0009.82,0003.72,0003.26
2022-12-10 21:21:00,,0823.8,4.99,0.00,26.5,25.4,00.0,35.2,28.4,06.0,0000.0,0010.66,0003.75,0003.26
2022-12-10 21:22:00,,0823.9,5.00,0.00,26.5,25.4,00.0,35.2,28.4,06.2,0000.0,0010.66,0003.74,0003.25
2022-12-10 21:23:00,,0823.9,5.03,0.00,26.5,25.4,00.0,35.2,28.4,06.2,0000.0,0011.00,0003.74,0003.24
2022-12-10 21:24:00,,0823.9,5.01,0.00,26.5,25.4,00.0,35.2,28.4,06.2,0000.0,0010.56,0003.73,0003.24
2022-12-10 21:25:00,,0823.9,4.97,0.00,26.6,25.4,00.0,35.2,28.4,06.2,0000.0,0010.24,0003.69,0003.25
2022-12-10 21:26:00,,0823.9,5.01,0.00,26.6,25.5,00.0,35.3,28.4,06.1,0000.0,0009.98,0003.68,0003.26
2022-12-10 21:27:00,,0823.9,5.01,0.00,26.6,25.5,00.0,35.3,28.5,06.1,0000.0,0009.46,0003.69,0003.28
2022-12-10 21:28:00,,0823.9,5.00,0.00,26.6,25.5,00.0,35.3,28.5,06.1,0000.0,0009.91,0003.72,0003.29
2022-12-10 21:29:00,,0823.9,5.00,0.00,26.6,25.5,00.0,35.3,28.5,06.1,0000.0,0010.08,0003.74,0003.30
2022-12-10 21:30:00,,0823.8,5.00,0.00,26.6,25.5,00.0,35.3,28.5,06.2,0000.0,0009.93,0003.77,0003.31
2022-12-10 21:31:00,,0823.8,4.99,0.00,26.6,25.5,00.0,35.3,28.5,06.1,0000.0,0009.83,0003.79,0003.32
2022-12-10 21:32:00,,0823.8,5.00,0.00,26.7,25.5,00.0,35.3,28.5,06.1,0000.0,0009.01,0003.77,0003.34
2022-12-10 21:33:00,,0823.7,5.00,0.00,26.7,25.6,00.0,35.4,28.6,06.1,0000.0,0008.36,0003.80,0003.35
2022-12-10 21:34:00,,0823.7,5.00,0.00,26.7,25.6,00.0,35.4,28.6,06.1,0000.0,0008.15,0003.81,0003.35
2022-12-10 21:35:00,,0823.8,5.01,0.00,26.7,25.6,00.0,35.4,28.6,06.1,0000.0,0007.66,0003.83,0003.35
2022-12-10 21:36:00,,0823.8,5.00,0.00,26.7,25.6,00.0,35.4,28.6,06.1,0000.0,0007.77,0003.87,0003.35
2022-12-10 21:37:00,,0823.8,5.00,0.00,26.7,25.6,00.0,35.4,28.6,06.1,0000.0,0007.88,0003.86,0003.34
2022-12-10 21:38:00,,0823.8,4.99,0.00,26.7,25.6,00.0,35.4,28.6,06.1,0000.0,0007.96,0003.85,0003.32
2022-12-10 21:39:00,,0823.8,5.00,0.00,26.7,25.6,00.0,35.4,28.6,06.0,0000.0,0007.60,0003.85,0003.32
2022-12-10 21:40:00,,0823.7,5.00,0.00,26.8,25.6,00.0,35.5,28.6,06.0,0000.0,0007.48,0003.86,0003.32
2022-12-10 21:41:00,,0823.8,5.00,0.00,26.8,25.6,00.0,35.5,28.6,06.0,0000.0,0007.49,0003.86,0003.33
2022-12-10 21:42:00,,0823.8,5.00,0.00,26.8,25.6,00.0,35.5,28.7,06.0,0000.0,0007.40,0003.82,0003.32
2022-12-10 21:43:00,,0823.8,4.99,0.00,26.8,25.7,00.0,35.5,28.7,06.1,0000.0,0007.30,0003.78,0003.31
2022-12-10 21:44:00,,0823.9,5.01,0.00,26.8,25.7,00.0,35.5,28.7,06.1,0000.0,0007.04,0003.72,0003.30
2022-12-10 21:45:00,,0824.0,5.00,0.00,26.8,25.7,00.0,35.5,28.7,06.2,0000.0,0007.48,0003.70,0003.31
2022-12-10 21:46:00,,0824.0,5.01,0.00,26.9,25.7,00.0,35.5,28.7,06.1,0000.0,0007.82,0003.70,0003.31
2022-12-10 21:47:00,,0823.9,4.99,0.00,26.9,25.7,00.0,35.6,28.7,06.1,0000.0,0007.87,0003.72,0003.32
2022-12-10 21:48:00,,0823.8,4.99,0.00,26.9,25.7,00.0,35.6,28.7,06.1,0000.0,0007.82,0003.75,0003.33
2022-12-10 21:49:00,,0823.8,5.02,0.00,26.9,25.7,00.0,35.6,28.7,06.1,0000.0,0007.49,0003.73,0003.35
2022-12-10 21:50:00,,0823.8,5.01,0.00,26.9,25.8,00.0,35.6,28.8,06.1,0000.0,0007.62,0003.75,0003.37
2022-12-10 21:51:00,,0823.8,5.00,0.00,26.9,25.8,00.0,35.6,28.8,06.0,0000.0,0007.67,0003.77,0003.39
2022-12-10 21:52:00,,0823.7,5.00,0.00,26.9,25.8,00.0,35.6,28.8,06.1,0000.0,0007.66,0003.78,0003.40
2022-12-10 21:53:00,,0823.8,5.00,0.00,26.9,25.8,00.0,35.6,28.8,06.0,0000.0,0007.74,0003.81,0003.42
2022-12-10 21:54:00,,0823.8,5.00,0.00,27.0,25.8,00.0,35.7,28.8,06.0,0000.0,0007.89,0003.84,0003.44
2022-12-10 21:55:00,,0823.8,5.00,0.00,27.0,25.8,00.0,35.7,28.8,06.1,0000.0,0008.38,0003.88,0003.46
2022-12-10 21:56:00,,0823.8,5.00,0.00,27.0,25.8,00.0,35.7,28.8,06.0,0000.0,0008.36,0003.94,0003.47
2022-12-10 21:57:00,,0823.8,5.00,0.00,27.0,25.8,00.0,35.7,28.8,06.0,0000.0,0008.21,0003.97,0003.49
2022-12-10 21:58:00,,0823.8,4.99,0.00,27.0,25.8,00.0,35.7,28.9,06.1,0000.0,0008.73,0003.97,0003.50
2022-12-10 21:59:00,,0823.8,5.00,0.00,27.0,25.8,00.0,35.7,28.9,06.1,0000.0,0009.44,0003.98,0003.51
